This demonstration page uses our WeatherBlox Daily Observations layout. Learn more.

Left ArrowRight Arrow

39.92423, -83.80882

Hourly Observations for January 6, 2015

Temp ( °F °C ) Dew Point ( °F °C ) Humidity (%) Winds ( mph kmh ) Pressure ( in mb ) Visibility ( mi km ) Precip ( " mm )
12:32 am 00:32 Cloudy with Light Snow 16 -9 12 -11 86 86 S 3 6 30.42 1030 2 3 0.00 0.03
12:40 am 00:40 Cloudy with Light Snow 16 -9 12 -11 86 86 S 3 6 30.42 1030 2 3 0.00 0.03
12:49 am 00:49 Cloudy with Light Snow 16 -9 12 -11 86 86 Calm 30.42 1030 1 2 0.00 0.03
12:56 am 00:56 Cloudy with Light Snow 15 -9.4 13 -10.5 92 92 Calm 30.37 1028 1 2 0.00 0.03
1:04 am 01:04 Cloudy with Light Snow 16 -9 12 -11 86 86 Calm 30.42 1030 2 2 0.00 0.03
1:12 am 01:12 Cloudy with Light Snow 16 -9 12 -11 86 86 Calm 30.42 1030 1 2 0.00 0.03
1:24 am 01:24 Cloudy with Light Snow 16 -9 12 -11 86 86 Calm 30.42 1030 1 2 0.00 0.03
1:39 am 01:39 Cloudy with Light Snow 16 -9 14 -10 93 93 Calm 30.42 1030 2 2 0.00 0.03
1:56 am 01:56 Cloudy with Light Snow 16 -8.8 14 -10 91 91 SSE 3 6 30.35 1028 1 2 0.00 0.03
2:15 am 02:15 Cloudy with Light Snow 16 -9 14 -10 93 93 SSE 3 6 30.42 1030 1 2 0.00 0.03
2:56 am 02:56 Cloudy with Light Snow 16 -8.8 14 -10 91 91 SSE 3 6 30.37 1028 1 2 0.00 0.03
3:20 am 03:20 Cloudy with Light Snow 16 -9 14 -10 93 93 Calm 30.42 1030 1 2 0.00 0.03
3:36 am 03:36 Cloudy with Light Snow 16 -9 14 -10 93 93 SSE 5 7 30.39 1029 1 2 0.00 0.03
3:49 am 03:49 Cloudy with Light Snow 16 -9 14 -10 93 93 SSE 5 7 30.39 1029 1 2 0.00 0.03
3:56 am 03:56 Cloudy with Light Snow 16 -8.8 14 -10 91 91 SSE 3 6 30.33 1027 2 2 0.00 0.03
4:04 am 04:04 Cloudy with Light Snow 16 -9 14 -10 93 93 SSE 5 7 30.39 1029 2 3 0.00 0.03
4:14 am 04:14 Cloudy with Light Snow 16 -9 14 -10 93 93 SSE 3 6 30.39 1029 2 3 0.00 0.03
4:21 am 04:21 Cloudy with Light Snow 16 -9 14 -10 93 93 SSE 3 6 30.39 1029 1 2 0.00 0.03
4:47 am 04:47 Cloudy with Light Snow 16 -9 14 -10 93 93 Calm 30.36 1028 2 3 0.00 0.03
4:56 am 04:56 Cloudy with Light Snow 16 -8.8 14 -10 91 91 SSE 5 7 30.30 1026 1 2 0.00 0.03
5:07 am 05:07 Cloudy with Light Snow 16 -9 14 -10 93 93 SSE 5 7 30.36 1028 2 3 0.00 0.03
5:18 am 05:18 Cloudy with Light Snow 16 -9 14 -10 93 93 SSE 5 7 30.36 1028 3 4 0.00 0.03
5:29 am 05:29 Cloudy with Light Snow 16 -9 14 -10 93 93 SSE 3 6 30.36 1028 3 5 0.00 0.03
5:40 am 05:40 Cloudy with Mist and Fog 16 -9 14 -10 93 93 SSE 3 6 30.36 1028 5 8 0.00 0.03
5:47 am 05:47 Cloudy with Mist and Fog 16 -9 14 -10 93 93 SSE 3 6 30.33 1027 6 10 0.00 0.03
5:56 am 05:56 Mostly Cloudy 15 -9.4 13 -10.5 92 92 SSE 3 6 30.28 1025 7 11 0.00 0.03
6:03 am 06:03 Cloudy 16 -9 12 -11 86 86 SSE 3 6 30.33 1027 7 11 0.00 0.00
6:10 am 06:10 Cloudy with Light Snow 16 -9 12 -11 86 86 Calm 30.33 1027 5 8 0.00 0.03
6:21 am 06:21 Cloudy with Light Snow 16 -9 14 -10 93 93 SSE 5 7 30.33 1027 4 6 0.00 0.03
6:37 am 06:37 Cloudy with Light Snow 16 -9 14 -10 93 93 SSE 3 6 30.36 1028 2 3 0.00 0.03
6:56 am 06:56 Cloudy with Mist and Fog 15 -9.4 13 -10.5 92 92 SSE 3 6 30.28 1025 6 10 0.00 0.03
7:56 am 07:56 Cloudy with Light Snow 15 -9.4 13 -10.5 92 92 Calm 30.29 1026 5 8 0.00 0.03
8:28 am 08:28 Cloudy with Light Snow 16 -9 12 -11 86 86 Calm 30.36 1028 4 6 0.00 0.03
8:46 am 08:46 Cloudy with Light Snow 16 -9 12 -11 86 86 Calm 30.36 1028 3 4 0.00 0.03
8:56 am 08:56 Cloudy with Light Snow 16 -8.8 13 -10.5 88 88 Calm 30.30 1026 3 5 0.00 0.03
9:37 am 09:37 Cloudy with Light Snow 18 -8 16 -9 93 93 SSW 5 7 30.39 1029 3 4 0.00 0.03
9:56 am 09:56 Cloudy with Light Snow 17 -8.3 15 -9.4 92 92 S 5 7 30.32 1027 3 5 0.00 0.03
10:04 am 10:04 Cloudy with Mist and Fog 18 -8 16 -9 93 93 SSW 6 9 30.39 1029 3 5 0.00 0.03
10:11 am 10:11 Cloudy with Mist and Fog 18 -8 16 -9 93 93 S 5 7 30.39 1029 3 4 0.00 0.03
10:24 am 10:24 Cloudy with Mist and Fog 18 -8 16 -9 93 93 SW 6 9 30.39 1029 3 5 0.00 0.03
10:36 am 10:36 Cloudy with Mist and Fog 18 -8 16 -9 93 93 SW 6 9 30.39 1029 4 6 0.00 0.03
10:48 am 10:48 Mostly Cloudy with Mist and Fog 18 -8 16 -9 93 93 VRB 7 11 30.39 1029 5 8 0.00 0.03
10:56 am 10:56 Cloudy with Mist and Fog 18 -7.7 14 -10 84 84 WNW 9 15 30.32 1027 5 8 0.00 0.03
11:13 am 11:13 Cloudy with Haze 19 -7 14 -10 79 79 W 9 15 30.36 1028 6 10 0.00 0.00
11:56 am 11:56 Mostly Cloudy 20 -6.6 14 -10 77 77 W 12 19 30.32 1027 8 13 0.00 0.00
12:11 pm 12:11 Partly Cloudy 18 -8 12 -11 79 79 WNW 12 19 30.39 1029 8 13 0.00 0.00
12:31 pm 12:31 Mostly Cloudy 18 -8 12 -11 79 79 NW 12 19 30.39 1029 9 14 0.00 0.00
12:56 pm 12:56 Cloudy 19 -7.2 12 -11.1 74 74 W 9 15 30.32 1027 8 13 0.00 0.03
1:28 pm 13:28 Partly Cloudy 18 -8 10 -12 73 73 W 12 19 30.39 1029 8 13 0.00 0.00
1:56 pm 13:56 Sunny 18 -7.7 10 -12.2 70 70 W 12 19 30.30 1026 8 13 0.00 0.00
2:56 pm 14:56 Sunny 17 -8.3 9 -12.7 71 71 W 9 15 30.31 1026 9 14 0.00 0.00
3:56 pm 15:56 Sunny with Light Snow 16 -8.8 8 -13.3 70 70 W 9 15 30.32 1027 9 14 0.00 0.03
4:56 pm 16:56 Sunny 15 -9.4 7 -13.8 71 71 WSW 8 13 30.32 1027 9 14 0.00 0.03
5:56 pm 17:56 Mostly Cloudy 12 -11.1 6 -14.4 77 77 SSW 7 11 30.31 1026 10 16 0.00 0.00
6:11 pm 18:11 Partly Cloudy 10 -12 5 -15 79 79 SSW 7 11 30.36 1028 10 16 0.00 0.00
6:56 pm 18:56 Mostly Clear 11 -11.6 6 -14.4 80 80 WSW 12 19 30.31 1026 9 14 0.00 0.00
7:56 pm 19:56 Clear 12 -11.1 7 -13.8 81 81 W 15 24 30.31 1027 10 16 0.00 0.00
8:56 pm 20:56 Clear 12 -11.1 6 -14.4 77 77 W 17 28 30.32 1027 9 14 0.00 0.00
9:56 pm 21:56 Clear 11 -11.6 4 -15.5 73 73 W 15 24 30.29 1026 10 16 0.00 0.00
10:56 pm 22:56 Clear 11 -11.6 3 -16.1 70 70 WSW 17 28 30.28 1025 10 16 0.00 0.00
11:56 pm 23:56 Clear 10 -12.2 3 -16.1 73 73 W 16 26 30.27 1025 10 16 0.00 0.00

Powered by AerisWeather